This is the latest recevied weather packets stored in our database for station/object WZ8H. If no packets are shown the sender has not sent any weather packets the latest 10 day(s).
| Time | Temp. | Humidity | Pressure | Rain* | Wind** | Luminosity | Snow |
|---|---|---|---|---|---|---|---|
| 1778056105 | 7.22° C | 93% | 1007.8 hPa | 0.25 mm | - | 0 W/m² | - |
| 1778055803 | 7.22° C | 93% | 1007.5 hPa | 0.25 mm | - | 0 W/m² | - |
| 1778055476 | 7.22° C | 93% | 1007.8 hPa | 0.25 mm | - | 0 W/m² | - |
| 1778055173 | 7.22° C | 93% | 1007.9 hPa | 0.25 mm | - | 0 W/m² | - |
| 1778054846 | 6.67° C | 93% | 1007.5 hPa | 0.51 mm | - | 0 W/m² | - |
| 1778054543 | 6.67° C | 93% | 1007.2 hPa | 0.51 mm | - | 0 W/m² | - |
| 1778054221 | 7.22° C | 93% | 1007.2 hPa | 0.51 mm | - | 0 W/m² | - |
| 1778053889 | 7.22° C | 93% | 1007.6 hPa | 0.76 mm | - | 0 W/m² | - |
| 1778053587 | 7.22° C | 93% | 1007.9 hPa | 0.76 mm | - | 0 W/m² | - |
| 1778053263 | 7.22° C | 93% | 1008.2 hPa | 0.51 mm | - | 0 W/m² | - |
| 1778052953 | 7.22° C | 93% | 1008.2 hPa | 0.76 mm | - | 0 W/m² | - |
| 1778052626 | 7.22° C | 93% | 1008.2 hPa | 0.76 mm | - | 0 W/m² | - |
| 1778052323 | 7.22° C | 93% | 1008.2 hPa | 0.76 mm | - | 0 W/m² | - |
| 1778052034 | 7.22° C | 93% | 1008 hPa | 0.76 mm | - | 0 W/m² | - |
| 1778051694 | 7.22° C | 93% | 1007.9 hPa | 1.02 mm | - | 0 W/m² | - |
| 1778051360 | 7.22° C | 93% | 1007.6 hPa | 0.76 mm | - | 0 W/m² | - |
| 1778051035 | 7.22° C | 93% | 1007.4 hPa | 0.76 mm | - | 0 W/m² | - |
| 1778050731 | 7.22° C | 94% | 1007.5 hPa | 1.02 mm | - | 0 W/m² | - |
| 1778050429 | 7.22° C | 94% | 1007.8 hPa | 1.27 mm | - | 0 W/m² | - |
| 1778050104 | 7.22° C | 94% | 1007.8 hPa | 1.27 mm | - | 0 W/m² | - |
| 1778049799 | 7.22° C | 94% | 1008.3 hPa | 1.52 mm | - | 0 W/m² | - |
| 1778049497 | 7.22° C | 94% | 1008.4 hPa | 1.52 mm | - | 0 W/m² | - |
| 1778049195 | 7.22° C | 94% | 1008 hPa | 1.78 mm | - | 0 W/m² | - |
| 1778048872 | 7.22° C | 94% | 1007.8 hPa | 2.03 mm | - | 0 W/m² | - |
| 1778048544 | 7.22° C | 94% | 1007.7 hPa | 2.29 mm | - | 0 W/m² | - |
* Rain latest hour (hover to see other rain measurements)
** Current wind speed in m/s (hover to see current wind gust speed)